Regional Weather Roundup
Issued by NWS

Home | Current Version | Previous Version | Graphics & Text | Print | Product List | Glossary On
Versions: 1 2 3 4 5 6 7 8 9 10 11 12 13 14 15 16 17 18 19 20 21 22 23 24 25 26 27 28 29 30 31 32 33 34 35 36 37 38 39 40 41 42 43 44 45 46 47 48 49 50
298
ASUS44 KJAN 142010
RWRMS

MISSISSIPPI HOURLY WEATHER ROUNDUP
NATIONAL WEATHER SERVICE JACKSON MS
300 PM CDT SUN SEP 14 2014

NOTE: "FAIR: INDICATES FEW OR NO CLOUDS BELOW 12,000 FEET WITH NO
SIGNIFICANT WEATHER AND/OR OBSTRUCTIONS TO VISIBILITY.

MSZ001>002-007>008-010>013-018>021-025>028-034>036-142100-
NORTHWEST MISSISSIPPI

CITY           SKY/WX    TMP DP  RH WIND       PRES   REMARKS
CLARKSDALE     FAIR      79  59  50 N9G16     30.17F
CLEVELAND      FAIR      81  62  52 NE7       30.14F
GREENWOOD      SUNNY     83  64  52 VRB5      30.13F
GREENVILLE     SUNNY     83  60  45 NE8       30.14F
GRENADA        FAIR      81  61  50 NE7       30.15F
OLIVE BRANCH   MOSUNNY   73  61  64 N6        30.19F
OXFORD         FAIR      77  59  53 NE7       30.18F
TUNICA         PTCLDY    73  57  56 N10       30.18F
$$

MSZ003>006-009-014>017-022>024-029>033-037>039-142100-
NORTHEAST MISSISSIPPI

CITY           SKY/WX    TMP DP  RH WIND       PRES   REMARKS
COLUMBUS AFB   SUNNY     84  64  50 VRB3      30.12F
CORINTH        FAIR      81  57  44 NW7       30.16F
GOLDN TRIANGLE SUNNY     88  64  45 N8        30.13F
STARKVILLE     FAIR      82  63  51 NE5       30.13F
TUPELO         SUNNY     81  60  48 N7        30.15F
$$

MSZ040-058-142100-
CENTRAL MISSISSIPPI

CITY           SKY/WX    TMP DP  RH WIND       PRES   REMARKS
JACKSON INTL   PTSUNNY   84  68  58 N8        30.12F
JACKSON HAWKNS PTSUNNY   84  68  58 VRB3      30.12F
MERIDIAN KEY   SUNNY     87  66  49 S5        30.10F
MERIDIAN NAS   SUNNY     87  67  51 CALM      30.11F HX  90
RAYMOND        MOCLDY    82  77  83 NE3       30.12F HX  91
VICKSBURG      SUNNY     84  66  54 NE8       30.12F
$$

MSZ059>079-142100-
SOUTH MISSISSIPPI

CITY           SKY/WX    TMP DP  RH WIND       PRES   REMARKS
BROOKHAVEN     MOCLDY    82  72  69 N7        30.12F
HATTIESBURG    MOSUNNY   89  71  55 NE8       30.08F HX  95
MCCOMB         MOSUNNY   85  69  58 N5        30.09F
NATCHEZ        CLOUDY    75  68  78 NE3       30.13F
PINE BELT      PTSUNNY   88  72  58 NE5       30.11F HX  94
$$

MSZ080>082-142100-
COASTAL MISSISSIPPI

CITY           SKY/WX    TMP DP  RH WIND       PRES   REMARKS
BAY ST LOUIS   MOSUNNY   90  70  51 E6        30.06F HX  95
BILOXI         MOSUNNY   91  74  58 S7        30.06F HX 100
PASCAGOULA     PTSUNNY   88  73  61 SE6       30.06F HX  95
GULFPORT       PTSUNNY   90  73  57 SE10      30.04F HX  98
$$



USA.gov is the U.S. government's official web portal to all federal, state and local government web resources and services.